Location: Saint-Denis
(20.8800°S, 55.4481°E)
Time: 02:06:20
(UTC+04:00)

Tiangong - Visible Passes

Search period start: 18 January 2026 00:00
Search period end: 28 January 2026 00:00
Orbit: 378 x 394 km, 41.5° (Epoch: 17 January)

Date Brightness Start Highest point End Pass type
(mag) Time Alt. Az. Time Alt. Az. Time Alt. Az.
24 Jan 1.3 21:23:58 10° SSW 21:24:16 12° SSW 21:24:16 12° SSW visible
25 Jan 0.0 20:25:05 10° SSW 20:27:16 17° SSE 20:27:29 17° SE visible
26 Jan 0.2 21:01:28 10° SW 21:02:57 25° SW 21:02:57 25° SW visible
27 Jan -1.1 20:02:05 10° SSW 20:05:02 35° SE 20:06:14 25° E visible
